Tracking 22093 objects as of 18-Jan-2021
HD Live streaming from Space Station
objects crossing your sky now

SAKURA 2B (CS-2B)

Track SAKURA 2B (CS-2B) now!
SAKURA 2B (CS-2B) is classified as:


NORAD ID: 14248
Int'l Code: 1983-081A
Perigee: 36,177.9 km
Apogee: 36,238.5 km
Inclination: 14.0 °
Period: 1,457.3 minutes
Semi major axis: 42579 km
RCS: 8.9693 m2 (large)
Launch date: August 5, 1983
Source: Japan (JPN)
Launch site: TANEGASHIMA SPACE CENTER (TNSTA)
aabbcc
Your satellite tracking list
Your tracking list is empty




NASA's NSSDC Master Catalog

Two Line Element Set (TLE):
1 14248U 83081A   21017.04245590 -.00000016  00000-0  00000-0 0  9997
2 14248  13.9696 339.5319 0007119  15.8943 175.9608  0.98811411104145
Source of the keplerian elements: AFSPC